Time[GMT],air_temperature[C](-3m),wind_speed[m/s](-4m),wind_gust[m/s](-4m),wind_direction[degrees](-4m),visibility[m](-3m),barometric_pressure[millibars](-3m)
2004-10-07 22:00,13.5,4.2,4.9,165,2898,1026.84
2004-10-07 23:00,13.5,4.1,4.7,179,2895,1027.20
2004-10-08 00:00,13.6,3.7,4.2,198,2897,1027.56
2004-10-08 01:00,13.7,3.5,4.0,199,2878,1027.68
2004-10-08 02:00,13.8,3.1,3.7,208,2893,1027.68
2004-10-08 03:00,13.9,2.2,2.8,207,2883,1027.68
2004-10-08 04:00,14.1,3.2,3.8,214,2880,1027.74
2004-10-08 05:00,14.0,3.0,3.6,214,2849,1027.74
2004-10-08 06:00,13.9,3.2,3.5,203,2793,1027.68
2004-10-08 07:00,13.6,3.5,4.2,214,2749,1027.20
2004-10-08 08:00,13.3,3.1,3.7,224,2802,1027.26
2004-10-08 09:00,13.1,2.9,3.5,244,2749,1027.20
2004-10-08 10:00,12.8,3.2,3.8,237,2722,1027.20
2004-10-08 11:00,12.8,2.7,3.2,211,2653,1027.20
2004-10-08 12:00,12.9,2.8,3.3,275,2663,1027.74
2004-10-08 13:00,12.6,2.8,3.4,220,2644,1028.04
2004-10-08 14:00,12.9,3.4,4.1,226,2722,1027.86
2004-10-08 15:00,13.5,3.1,3.6,207,2698,1027.74
2004-10-08 16:00,13.5,3.8,4.4,183,2754,1027.08
2004-10-08 17:00,14.0,4.9,5.8,173,2719,1026.24
2004-10-08 18:00,12.8,5.7,6.6,165, 319,1025.76
2004-10-08 19:00,14.1,5.0,6.0,174,2689,1025.04
2004-10-08 20:00,14.9,6.8,7.6,171,2850,1024.08
2004-10-08 21:00,15.2,6.8,7.6,174,2822,1023.84
2004-10-08 22:00,15.2,6.7,7.9,176,2826,1023.54
2004-10-08 23:00,15.1,6.9,8.1,176,2813,1023.42
2004-10-09 00:00,15.4,7.2,8.5,188,2805,1023.54
2004-10-09 01:00,15.2,6.3,7.0,193,2802,1023.66
2004-10-09 02:00,14.9,6.2,7.1,195,2799,1023.96
2004-10-09 03:00,14.8,6.0,6.8,202,2781,1023.66
2004-10-09 04:00,14.6,6.1,7.1,199,2730,1023.18
2004-10-09 05:00,14.5,7.3,8.7,201,2700,1023.00
2004-10-09 06:00,14.5,7.4,8.3,208,2700,1022.52
2004-10-09 07:00,14.4,6.9,8.6,206,2667,1021.98
2004-10-09 08:00,14.3,6.9,8.1,203,2470,1021.50
2004-10-09 09:00,14.3,7.2,8.3,203,2459,1021.08
2004-10-09 10:00,14.3,5.8,6.5,207,2418,1021.08
2004-10-09 11:00,14.2,6.3,7.2,206,2476,1021.02
2004-10-09 12:00,14.3,6.7,7.6,199,2400,1020.96
2004-10-09 13:00,14.3,8.1,11.1,217,2217,1021.14
2004-10-09 14:00,14.4,7.2,8.9,208,2202,1021.08
2004-10-09 15:00,14.4,6.5,7.5,205,2232,1020.54
2004-10-09 16:00,14.6,5.9,6.8,193,2512,1020.06
2004-10-09 17:00,14.8,6.6,7.9,186,2567,1019.22
2004-10-09 18:00,15.0,6.6,7.7,184,2679,1018.38
2004-10-09 19:00,15.3,6.4,7.7,176,2805,1017.60
2004-10-09 20:00,15.4,7.9,9.2,176,2813,1017.12
2004-10-09 21:00,15.3,6.9,7.8,172,2804,1016.64
2004-10-09 22:00,15.6,8.1,9.4,176,2794,1015.98
2004-10-09 23:00,15.6,7.6,8.9,188,2795,1015.98
2004-10-10 00:00,15.5,8.6,10.4,185,2807,1015.50
2004-10-10 01:00,15.2,7.7,9.2,198,2744,1015.98
2004-10-10 02:00,15.0,7.8,9.0,198,2740,1015.92
2004-10-10 03:00,14.8,7.6,9.0,200,2758,1015.68
2004-10-10 04:00,14.9,8.0,9.8,196,2786,1015.08
2004-10-10 05:00,14.7,8.1,9.4,204,2736,1014.90
2004-10-10 06:00,14.5,6.8,7.7,216,2709,1014.24
2004-10-10 07:00,14.4,6.2,7.4,212,2656,1013.82
2004-10-10 08:00,14.3,5.1,5.9,202,2616,1013.70
2004-10-10 09:00,14.3,4.2,4.9,221,2558,1013.76
2004-10-10 10:00,14.1,3.9,4.4,220,2415,1013.64
2004-10-10 11:00,13.8,3.3,3.9,253,2285,1013.88
2004-10-10 12:00,13.5,1.7,2.2,237,2327,1014.24
2004-10-10 13:00,13.8,3.7,4.7,273,2810,1014.18
2004-10-10 14:00,14.2,3.0,3.7,288,2896,1014.24
2004-10-10 15:00,14.2,3.4,4.0,283,2918,1014.06
2004-10-10 16:00,14.3,1.4,2.7,262,2916,1013.82
2004-10-10 17:00,14.7,1.9,2.6,274,2934,1012.74
2004-10-10 18:00,15.5,2.2,2.6,  3,2909,1012.68
2004-10-10 19:00,14.7,1.1,1.9, 54,2877,1012.08
2004-10-10 20:00,14.4,2.0,2.7, 84,2859,1011.42
2004-10-10 21:00,14.3,0.6,1.2, 80,2011,1011.12
2004-10-10 22:00,14.5,2.5,3.2,275,2679,1011.36
2004-10-10 23:00,14.1,0.9,1.8, 20,2880,1011.72
2004-10-11 00:00,14.0,9.6,10.8,  8,2915,1012.08
2004-10-11 01:00,13.1,9.4,11.2,  1,2885,1012.92
2004-10-11 02:00,13.1,8.6,10.5,  4,2895,1012.98
2004-10-11 03:00,13.0,10.6,12.6,  2,2897,1012.80
2004-10-11 04:00,12.5,8.4,9.8,360,2898,1012.80
2004-10-11 05:00,12.0,8.2,9.6,345,2895,1012.98
2004-10-11 06:00,11.7,8.5,10.4,348,2901,1012.74
2004-10-11 07:00,11.5,8.4,10.1,348,2894,1012.56
2004-10-11 08:00,11.6,8.7,10.5,338,2896,1012.62
2004-10-11 09:00,11.5,8.0,9.4,340,2909,1012.86
2004-10-11 10:00,11.5,9.1,10.4,332,2919,1012.62
2004-10-11 11:00,11.8,8.8,10.4,347,2914,1013.28
2004-10-11 12:00,11.8,8.8,10.6,341,2912,1013.70
2004-10-11 13:00,12.0,9.1,11.1,346,2872,1013.40
2004-10-11 14:00,12.4,9.1,10.7,351,2884,1012.92
2004-10-11 15:00,12.8,9.4,11.3,352,2874,1012.80
2004-10-11 16:00,13.1,8.6,10.1,356,2866,1012.62
2004-10-11 17:00,13.6,8.0,9.7,350,2919,1012.08
2004-10-11 18:00,14.2,6.8,9.0,354,2913,1011.66
2004-10-11 19:00,14.6,5.0,6.5,357,2862,1011.30
2004-10-11 20:00,14.9,5.5,6.3,  4,2900,1010.88
2004-10-11 21:00,14.9,5.7,6.5,  8,2884,1010.52
2004-10-11 22:00,14.8,7.8,9.6, 12,2797,1010.40
2004-10-11 23:00,14.4,6.8,8.4,353,2877,1009.86
2004-10-12 00:00,14.0,7.9,9.6,343,2927,1009.20
2004-10-12 01:00,13.0,8.8,11.5,339,2881,1009.32
2004-10-12 02:00,12.1,10.5,12.7,338,2843,1008.42
2004-10-12 03:00,11.4,10.9,13.1,322,2834,1007.28
2004-10-12 04:00,11.6,11.4,13.5,323,2849,1005.84
2004-10-12 05:00,11.6,12.0,14.3,322,2849,1004.64
2004-10-12 06:00,11.6,11.9,14.6,321,2852,1003.74
2004-10-12 07:00,11.6,11.8,14.1,317,2870,1002.54
2004-10-12 08:00,11.5,11.0,13.1,317,2866,1001.88
2004-10-12 09:00,11.2,10.9,13.3,317,2204,1001.16
2004-10-12 10:00,10.8,10.9,13.6,311,2238,1000.44
2004-10-12 11:00,10.3,9.0,11.1,314,2523,1000.56
2004-10-12 12:00,10.3,9.3,10.9,316,2534,1000.62
2004-10-12 13:00,10.1,8.4,10.4,319,2230,1000.56
2004-10-12 14:00,10.0,9.5,11.4,321,2455,1000.08
2004-10-12 15:00,9.9,10.1,12.0,318,2128,999.84
2004-10-12 16:00,10.2,9.8,11.9,318,2804,999.48
2004-10-12 17:00,10.8,9.5,11.1,318,2861,998.70
2004-10-12 18:00,11.4,9.5,10.9,326,2845,998.46
2004-10-12 19:00,11.8,7.2,9.8,314,2845,998.46
2004-10-12 20:00,12.0,8.4,9.8,310,2826,998.64
2004-10-12 21:00,11.7,8.5,9.8,302,2543,999.06
2004-10-12 22:00,11.8,6.6,8.0,304,2743,999.72
2004-10-12 23:00,11.8,5.1,6.8,293,2915,1000.62
2004-10-13 00:00,12.0,5.4,6.5,305,2909,1000.86
2004-10-13 01:00,12.1,5.2,6.1,299,2917,1000.92
2004-10-13 02:00,11.7,4.9,5.7,286,2914,1000.92
2004-10-13 03:00,11.7,5.6,6.5,284,2909,1000.74
2004-10-13 04:00,11.8,5.7,7.4,283,2909,1000.68
2004-10-13 05:00,11.1,6.7,7.6,279,2900,1000.80
2004-10-13 06:00,10.9,5.9,7.1,260,2906,1000.98
2004-10-13 07:00,10.5,6.1,7.8,262,2904,1001.16
2004-10-13 08:00,10.5,6.1,6.9,262,2894,1001.40
2004-10-13 09:00,10.4,3.9,5.9,268,2902,1001.76
2004-10-13 10:00,10.6,2.7,4.0,343,2919,1002.12
2004-10-13 11:00,11.0,2.2,3.2,297,2902,1002.30
2004-10-13 12:00,11.0,3.0,4.2,258,2911,1003.02
2004-10-13 13:00,10.9,4.3,5.4,256,2900,1003.20
2004-10-13 14:00,11.3,4.5,5.7,251,2905,1003.38
2004-10-13 15:00,12.4,4.2,4.8,257,2918,1003.26
2004-10-13 16:00,13.3,3.0,3.6,249,2936,1003.20
2004-10-13 17:00,13.9,3.7,4.8,199,2938,1002.84
2004-10-13 18:00,14.5,3.5,4.0,215,2923,1002.42
2004-10-13 19:00,14.7,5.1,5.9,191,2921,1002.30
2004-10-13 20:00,14.3,5.2,6.1,194,2917,1002.18
2004-10-13 21:00,14.7,3.8,4.5,201,2937,1002.48
2004-10-13 22:00,14.1,4.4,5.4,194,2905,1003.08
2004-10-13 23:00,14.3,4.2,4.8,200,2915,1003.38
2004-10-14 00:00,13.9,5.5,6.3,196,2906,1003.50
2004-10-14 01:00,13.8,5.2,5.7,204,2909,1003.68
2004-10-14 02:00,13.6,3.2,4.1,195,2898,1003.86
2004-10-14 03:00,13.4,2.7,3.3,210,2890,1003.98
2004-10-14 04:00,13.0,1.5,1.9,250,2868,1004.16
2004-10-14 05:00,11.9,2.2,2.7,350,2845,1004.10
2004-10-14 06:00,12.1,2.3,3.0,  7,2818,1004.28
2004-10-14 07:00,12.2,5.0,5.8, 19,2765,1003.80
2004-10-14 08:00,12.0,4.6,5.3, 30,2898,1003.80
2004-10-14 09:00,11.8,5.0,5.5, 34,2898,1003.92
2004-10-14 10:00,11.9,3.9,4.9, 45,2874,1004.28
2004-10-14 11:00,11.3,4.5,5.3, 15,2873,1004.58
2004-10-14 12:00,11.1,4.3,5.0, 28,2802,1005.12
2004-10-14 13:00,12.3,3.1,3.7, 62,2685,1005.00
2004-10-14 14:00,12.4,3.8,4.5,113,2755,1005.30
2004-10-14 15:00,12.2,1.5,3.3, 98,2758,1005.24
2004-10-14 16:00,12.5,2.3,2.9, 31,2800,1005.06
2004-10-14 17:00,12.8,1.8,2.3, 56,2816,1004.58
2004-10-14 18:00,13.0,2.8,3.5, 90,2842,1004.58
2004-10-14 19:00,12.9,4.0,4.5, 67,2836,1004.28
2004-10-14 20:00,12.4,4.7,5.4, 72,2790,1004.34
2004-10-14 21:00,12.2,5.3,6.1, 78,2762,1004.34
2004-10-14 22:00,12.3,6.0,6.9, 67,2817,1003.98
2004-10-14 23:00,12.5,5.9,7.6, 74,2850,1004.28
2004-10-15 00:00,12.4,5.9,6.9, 57,2846,1004.10
2004-10-15 01:00,12.4,6.9,8.0, 43,2835,1004.28
2004-10-15 02:00,12.5,7.9,10.0, 32,2628,1003.92
2004-10-15 03:00,12.3,9.6,11.2, 34,1103,1003.20
2004-10-15 04:00,12.4,7.8,9.6, 38,2814,1003.44
2004-10-15 05:00,12.2,8.6,9.9, 33,1935,1002.96
2004-10-15 06:00,12.2,7.9,9.6, 40,2118,1003.26
2004-10-15 07:00,11.9,8.9,10.9, 49,1615,1002.36
2004-10-15 08:00,11.6,9.0,10.2, 43, 630,1002.24
2004-10-15 09:00,11.6,8.7,9.8, 45,1048,1002.48
2004-10-15 10:00,11.7,8.6,10.1, 42, 676,1002.54
2004-10-15 11:00,11.6,7.9,9.3, 43,1571,1002.90
2004-10-15 12:00,11.5,7.9,9.2, 36,1887,1003.26
2004-10-15 13:00,11.5,8.1,9.4, 40,2723,1003.20
2004-10-15 14:00,11.3,9.1,10.4, 48,1990,1002.96
2004-10-15 15:00,11.2,7.6,8.9, 48,1776,1003.02
2004-10-15 16:00,11.3,8.5,10.0, 46,2078,1002.18
2004-10-15 17:00,11.2,8.0,9.4, 52,1098,1001.28
2004-10-15 18:00,11.1,5.4,6.7, 51, 926,1002.00
2004-10-15 19:00,11.1,5.0,5.6, 39,1741,1001.88
2004-10-15 20:00,11.3,4.7,5.3, 33,1936,1001.88
2004-10-15 21:00,11.4,4.3,5.0, 24,1985,1001.76
2004-10-15 22:00,11.4,3.2,3.8, 36,2577,1002.24
2004-10-15 23:00,11.5,2.1,2.7, 57,2830,1002.42
2004-10-16 00:00,11.5,2.5,3.0, 63,2546,1001.58
2004-10-16 01:00,11.5,3.6,4.2, 67,2661,1000.80
2004-10-16 02:00,11.5,4.0,4.6, 84,2125,999.48
2004-10-16 03:00,12.4,6.4,8.0, 92,1714,998.16
2004-10-16 04:00,12.6,8.1,9.5,104,1712,996.12
2004-10-16 05:00,13.0,8.8,10.2,121,1452,994.62
2004-10-16 06:00,12.9,5.1,6.4,130,1862,993.72
2004-10-16 07:00,13.1,2.6,4.9,155,2152,992.04
2004-10-16 08:00,13.2,4.1,5.6, 41,2454,989.16
2004-10-16 09:00,12.9,2.4,3.2,172,2455,991.26
2004-10-16 10:00,13.4,5.3,6.2,222,2635,991.02
2004-10-16 11:00,13.3,4.3,4.9,205,2714,991.32
2004-10-16 12:00,13.7,8.8,11.4,221,2843,991.86
2004-10-16 13:00,13.4,9.1,10.7,242,2811,993.12
2004-10-16 14:00,13.1,10.5,12.8,248,2867,994.44
2004-10-16 15:00,13.3,9.2,11.8,253,2796,995.34
2004-10-16 16:00,13.7,7.8,9.5,254,2900,995.64
2004-10-16 17:00,14.1,7.8,9.2,242,2872,995.94
2004-10-16 18:00,14.0,6.4,8.1,226,2893,996.18
2004-10-16 19:00,14.2,5.9,7.1,229,2889,997.44
2004-10-16 20:00,14.1,4.7,5.5,227,2913,997.92
2004-10-16 21:00,13.9,5.1,5.8,219,2911,998.28
2004-10-16 22:00,14.1,8.2,10.2,211,2863,998.82
2004-10-16 23:00,13.9,8.6,10.0,211,2811,999.42
2004-10-17 00:00,13.6,7.8,9.4,212,2817,999.78
2004-10-17 01:00,13.4,7.3,9.2,214,2790,1000.32
2004-10-17 02:00,13.5,8.9,11.1,210,2798,1000.62
2004-10-17 03:00,13.4,7.4,10.7,210,2823,1000.68
2004-10-17 04:00,12.9,7.9,9.0,217,2846,1000.62
2004-10-17 05:00,12.6,8.5,9.6,224,2861,1000.38
2004-10-17 06:00,12.0,8.5,9.6,223,2849,1000.50
2004-10-17 07:00,11.5,8.5,10.1,230,2816,1000.92
2004-10-17 08:00,11.1,7.4,9.3,246,2857,1001.04
2004-10-17 09:00,10.6,8.2,9.6,244,2877,1001.94
2004-10-17 10:00,10.4,6.8,8.6,247,2859,1002.36
2004-10-17 11:00,10.1,7.9,9.7,251,2861,1002.84
2004-10-17 12:00,9.5,8.6,10.2,255,2860,1003.92
2004-10-17 13:00,9.6,7.4,9.0,243,2853,1004.70
2004-10-17 14:00,9.9,7.4,8.8,250,2870,1004.76
2004-10-17 15:00,10.2,6.0,7.3,236,2844,1004.70
2004-10-17 16:00,10.5,7.7,8.9,205,2853,1004.52
2004-10-17 17:00,11.0,8.8,10.2,206,2775,1003.98
2004-10-17 18:00,11.4,7.8,9.7,204,2740,1003.80
2004-10-17 19:00,11.6,9.4,10.9,216,2872,1004.10
2004-10-17 20:00,11.8,9.5,11.4,222,2825,1004.52
2004-10-17 21:00,11.9,8.8,10.0,230,2858,1005.00
2004-10-17 22:00,12.0,8.4,10.0,229,2903,1005.54
2004-10-17 23:00,12.1,8.7,10.3,232,2913,1006.26
2004-10-18 00:00,11.5,7.5,9.1,264,2900,1007.04
2004-10-18 01:00,11.2,6.6,7.5,258,2901,1007.52
2004-10-18 02:00,10.3,8.5,12.6,271,2501,1008.00
2004-10-18 03:00,9.9,8.0,10.3,260,2888,1008.42
2004-10-18 04:00,9.4,10.0,12.0,264,2866,1008.54
2004-10-18 05:00,9.1,9.4,10.9,258,2865,1008.90
2004-10-18 06:00,8.9,9.4,11.2,256,2869,1009.32
2004-10-18 07:00,9.1,9.2,10.9,259,2856,1009.98
2004-10-18 08:00,8.8,7.1,9.3,264,2887,1010.94
2004-10-18 09:00,8.9,8.3,9.8,258,2889,1011.42
2004-10-18 10:00,9.0,8.5,10.4,262,2887,1012.08
2004-10-18 11:00,8.8,8.1,9.6,257,2859,1013.10
2004-10-18 12:00,8.9,9.3,11.5,247,2864,1014.24
2004-10-18 13:00,8.7,7.9,9.7,250,2851,1014.84
2004-10-18 14:00,9.1,7.0,8.7,260,2890,1014.90
2004-10-18 15:00,10.1,7.3,9.1,282,2888,1015.02
2004-10-18 16:00,10.6,4.9,7.2,285,2833,1014.90
2004-10-18 17:00,11.4,5.4,6.6,269,2903,1015.50
2004-10-18 18:00,11.9,6.9,8.4,263,2872,1015.62
2004-10-18 19:00,12.4,5.6,7.8,274,2922,1015.92
2004-10-18 20:00,12.3,5.2,7.8,296,2928,1016.40
2004-10-18 21:00,12.5,3.3,4.7,298,2928,1016.70
2004-10-18 22:00,12.3,4.1,4.8,283,2919,1017.60
2004-10-18 23:00,12.0,5.0,6.0,277,2927,1018.56
2004-10-19 00:00,11.1,4.9,5.7,286,2930,1019.28
2004-10-19 01:00,11.1,5.4,6.3,315,2934,1020.06
2004-10-19 02:00,10.2,5.9,6.9, 21,2933,1020.90
2004-10-19 03:00,9.8,6.4,7.7, 34,2914,1021.02
2004-10-19 04:00,9.6,7.3,9.3, 30,2904,1020.48
2004-10-19 05:00,9.4,5.1,6.3, 26,2918,1021.44
2004-10-19 06:00,9.1,5.2,6.6, 44,2916,1021.50
2004-10-19 07:00,8.9,5.1,6.1, 34,2915,1021.20
2004-10-19 08:00,8.7,5.2,6.5, 33,2903,1021.26
2004-10-19 09:00,8.6,6.1,7.2, 30,2917,1021.68
2004-10-19 10:00,8.5,5.7,7.3, 50,2912,1022.10
2004-10-19 11:00,8.5,4.7,5.6, 41,2913,1022.22
2004-10-19 12:00,8.5,5.0,6.3, 43,2889,1022.40
2004-10-19 13:00,8.6,5.2,6.7, 43,2884,1022.70
2004-10-19 14:00,8.4,6.0,7.3, 50,2886,1023.12
2004-10-19 15:00,8.3,7.1,8.4, 48,2903,1022.82
2004-10-19 16:00,8.6,6.8,8.2, 49,2849,1022.64
2004-10-19 17:00,8.8,6.9,8.9, 57,2876,1022.22
2004-10-19 18:00,8.8,6.9,8.6, 52,2877,1022.40
2004-10-19 19:00,8.9,7.5,9.0, 49,2875,1022.10
2004-10-19 20:00,9.0,7.5,9.2, 49,2874,1022.28
2004-10-19 21:00,9.0,7.9,9.5, 49,2864,1022.28
2004-10-19 22:00,9.2,7.4,8.9, 53,2876,1022.34
2004-10-19 23:00,9.3,7.0,8.4, 52,2908,1022.52
2004-10-20 00:00,9.4,7.1,8.8, 56,2899,1022.34
2004-10-20 01:00,9.6,6.6,7.8, 59,2924,1023.06
2004-10-20 02:00,9.6,5.9,6.9, 55,2919,1023.06
2004-10-20 03:00,9.6,6.1,7.3, 47,2911,1023.18
2004-10-20 04:00,9.6,7.2,8.7, 45,2913,1022.88
2004-10-20 05:00,9.0,7.0,8.2, 26,2849,1022.40
2004-10-20 06:00,9.7,7.1,8.3, 50,2879,1022.46
2004-10-20 07:00,9.8,8.6,10.4, 43,2900,1022.04
2004-10-20 08:00,9.0,9.5,11.5, 36,2864,1021.98
2004-10-20 09:00,8.4,9.2,11.1, 38,2862,1022.34
2004-10-20 10:00,7.7,9.9,11.7, 35,2859,1022.46
2004-10-20 11:00,7.4,9.8,11.6, 28,2819,1022.70
2004-10-20 12:00,7.0,9.1,10.6, 28,2679,1023.66
2004-10-20 13:00,6.8,9.3,11.0, 28,2464,1023.78
2004-10-20 14:00,6.8,9.3,10.9, 36,2655,1023.84
2004-10-20 15:00,6.7,8.5,10.5, 46,2833,1023.90
2004-10-20 16:00,6.9,6.5,8.3, 54,2777,1024.14
2004-10-20 17:00,7.4,6.6,8.2, 48,2560,1023.36
2004-10-20 18:00,7.9,6.7,8.7, 46,2470,1022.58
2004-10-20 19:00,8.4,6.8,8.0, 50,2251,1022.10
2004-10-20 20:00,8.7,5.8,7.2, 61,2065,1021.98
2004-10-20 21:00,8.7,4.7,5.9, 59,2566,1022.04
2004-10-20 22:00,8.5,4.3,5.6, 68,2897,1021.92
2004-10-20 23:00,8.7,4.7,5.6, 65,2906,1021.92
2004-10-21 00:00,9.0,5.8,6.7, 68,2918,1021.80
2004-10-21 01:00,9.1,5.9,7.1, 61,2918,1022.04
2004-10-21 02:00,9.2,5.3,6.7, 47,2920,1022.16
2004-10-21 03:00,9.4,5.7,7.0, 48,2922,1022.34
2004-10-21 04:00,9.4,6.9,8.6, 42,2923,1021.98
2004-10-21 05:00,9.3,6.3,7.7, 51,2919,1021.74
2004-10-21 06:00,9.2,6.7,8.4, 58,2920,1021.56
2004-10-21 07:00,7.4,7.0,8.6, 12,2855,1021.50
2004-10-21 08:00,7.6,8.0,9.4, 21,2844,1021.50
2004-10-21 09:00,7.4,8.4,9.8, 12,2834,1021.80
2004-10-21 10:00,5.8,8.3,9.9,  2,2854,1022.10
2004-10-21 11:00,5.6,7.7,9.2, 14,2844,1022.82
2004-10-21 12:00,6.3,9.0,10.6, 23,2828,1022.88
2004-10-21 13:00,6.7,8.7,10.2, 24,2820,1023.30
2004-10-21 14:00,7.3,8.5,10.1, 26,2816,1023.42
2004-10-21 15:00,7.7,8.1,9.6, 33,2794,1023.72
2004-10-21 16:00,7.9,8.5,9.8, 43,2838,1023.90
2004-10-21 17:00,8.1,7.6,9.0, 39,2864,1023.78
2004-10-21 18:00,8.1,7.2,8.5, 39,2847,1023.54
2004-10-21 19:00,8.4,7.1,8.4, 47,2865,1023.60
2004-10-21 20:00,8.5,7.1,8.5, 44,2892,1023.78
2004-10-21 21:00,8.8,7.6,8.7, 46,2852,1023.78
2004-10-21 22:00,8.6,6.5,8.0, 57,2883,1024.14
2004-10-21 23:00,8.8,5.8,7.5, 65,2897,1024.38
2004-10-22 00:00,9.0,6.9,8.1, 42,2848,1024.44
2004-10-22 01:00,9.0,8.5,10.0, 33,2883,1024.56
2004-10-22 02:00,9.0,9.5,11.5, 41,2872,1024.38
2004-10-22 03:00,9.0,8.2,9.9, 47,2877,1024.62
2004-10-22 04:00,8.9,7.4,10.0, 42,2898,1024.80
2004-10-22 05:00,9.1,6.6,8.6, 53,2897,1024.62
2004-10-22 06:00,8.3,8.3,10.2, 18,2861,1024.44
2004-10-22 07:00,8.1,7.8,9.1, 14,2856,1024.44
2004-10-22 08:00,8.3,8.1,9.3, 29,2864,1024.32
2004-10-22 09:00,8.7,8.9,10.6, 35,2851,1024.32
2004-10-22 10:00,8.5,9.2,10.5, 36,2162,1024.56
2004-10-22 11:00,8.9,9.4,11.3, 33,2819,1024.80
2004-10-22 12:00,9.1,9.2,10.9, 34,2758,1025.22
2004-10-22 13:00,9.0,10.2,12.9, 36,2667,1025.64
2004-10-22 14:00,9.0,9.7,11.5, 40,2709,1025.94
2004-10-22 15:00,9.0,10.3,12.5, 44,2710,1025.94
2004-10-22 16:00,8.9,9.9,11.4, 50,2727,1026.06
2004-10-22 17:00,8.9,10.1,12.3, 59,2611,1025.82
2004-10-22 18:00,9.1,8.4,10.0, 53,2765,1025.88
2004-10-22 19:00,9.1,8.7,10.3, 51,2841,1025.58
2004-10-22 20:00,9.2,8.5,10.4, 35,2864,1025.70
2004-10-22 21:00,9.2,8.8,10.5, 30,2852,1025.58
2004-10-22 22:00,9.2,8.1,9.8, 28,2870,1025.82
2004-10-22 23:00,9.2,8.2,10.0, 33,2884,1025.70
2004-10-23 00:00,9.1,9.3,11.1, 24,2888,1025.58
2004-10-23 01:00,8.7,9.6,11.1, 19,2880,1025.70
2004-10-23 02:00,8.4,9.6,11.0, 19,2810,1025.70
2004-10-23 03:00,8.2,10.0,11.7, 20,2858,1025.28
2004-10-23 04:00,8.1,9.7,11.4, 16,2868,1024.92
2004-10-23 05:00,8.2,9.7,11.6, 20,2868,1024.92
2004-10-23 06:00,8.3,9.5,11.0, 24,2862,1024.98
2004-10-23 07:00,8.2,9.6,11.2, 24,2832,1024.62
2004-10-23 08:00,8.1,9.5,10.8, 24,2868,1024.26
2004-10-23 09:00,7.9,9.3,11.8, 21,2802,1023.78
2004-10-23 10:00,7.9,8.5,10.3, 28,2872,1024.50
2004-10-23 11:00,7.9,9.1,10.7, 31,2850,1024.44
2004-10-23 12:00,8.1,10.7,12.9, 30,2804,1024.02
2004-10-23 13:00,8.2,10.6,12.4, 33,2844,1024.02
2004-10-23 14:00,8.2,10.2,12.5, 24,2772,1024.38
2004-10-23 15:00,8.5,10.9,12.8, 33,2798,1023.84
2004-10-23 16:00,8.6,10.1,11.8, 29,2803,1023.54
2004-10-23 17:00,8.6,10.4,12.3, 26,2793,1023.12
2004-10-23 18:00,8.9,8.9,10.4, 23,2783,1022.82
2004-10-23 19:00,9.0,8.8,11.1, 25,2774,1022.46
2004-10-23 20:00,8.9,9.2,11.1, 26,2832,1022.16
2004-10-23 21:00,9.1,9.4,11.1, 23,2841,1021.50
2004-10-23 22:00,9.2,8.7,10.7, 33,2872,1021.44
2004-10-23 23:00,9.3,9.3,11.4, 57,2859,1020.90
2004-10-24 00:00,9.2,9.9,11.7, 47,2862,1020.84
2004-10-24 01:00,9.2,9.0,10.8, 40,2856,1020.66
2004-10-24 02:00,9.0,8.8,10.0, 26,2861,1020.60
2004-10-24 03:00,8.9,8.9,10.8, 24,2858,1020.00
2004-10-24 04:00,8.8,8.9,10.7, 30,2849,1019.10
2004-10-24 05:00,8.7,9.7,11.4, 31,2835,1018.08
2004-10-24 06:00,8.8,9.9,12.6, 33,2814,1017.30
2004-10-24 07:00,8.6,10.6,12.4, 30,2790,1017.00
2004-10-24 08:00,8.4,10.7,12.4, 28,2787,1016.64
2004-10-24 09:00,8.4,10.3,12.4, 29,2804,1016.76
2004-10-24 10:00,8.4,9.7,11.4, 25,2808,1016.94
2004-10-24 11:00,8.4,8.8,10.7, 21,2781,1017.36
2004-10-24 12:00,8.1,9.0,10.9, 21,2806,1017.24
2004-10-24 13:00,8.5,9.8,11.8, 34,2762,1017.24
2004-10-24 14:00,8.3,9.7,11.4, 31,2775,1017.18
2004-10-24 15:00,8.2,9.5,11.5, 27,2746,1017.06
2004-10-24 16:00,8.2,9.6,11.5, 31,2738,1016.64
2004-10-24 17:00,8.1,9.2,11.4, 23,2739,1016.34
2004-10-24 18:00,8.1,9.8,11.7, 31,2709,1016.16
2004-10-24 19:00,7.8,9.8,11.5, 28,2611,1015.80
2004-10-24 20:00,7.8,8.4,10.1, 24,2383,1016.34
2004-10-24 21:00,7.7,8.1,9.5, 23,2515,1016.40
2004-10-24 22:00,8.4,7.0,8.9, 22,2626,1016.88
2004-10-24 23:00,8.7,8.2,9.4, 34,2753,1016.52
2004-10-25 00:00,8.8,7.8,9.5, 36,2727,1016.58
2004-10-25 01:00,8.6,8.5,10.0, 37,2709,1016.64
2004-10-25 02:00,8.2,7.7,9.2, 36,2427,1016.70
2004-10-25 03:00,8.4,7.7,9.2, 34,2599,1016.58
2004-10-25 04:00,8.7,7.7,9.2, 34,2611,1016.58
2004-10-25 05:00,8.7,7.5,8.6, 29,2593,1016.76
2004-10-25 06:00,8.6,7.2,8.4, 22,2629,1016.88
2004-10-25 07:00,8.4,6.2,7.8, 12,2533,1017.00
2004-10-25 08:00,8.3,6.1,7.4, 16,2653,1016.88
2004-10-25 09:00,8.2,5.7,7.2, 18,2670,1016.82
2004-10-25 10:00,8.2,5.8,6.9,  6,2665,1016.82
2004-10-25 11:00,8.0,5.9,7.5,  6,2706,1017.18
2004-10-25 12:00,8.0,6.3,7.2,  4,2735,1017.48
2004-10-25 13:00,8.0,6.4,7.5,  7,2760,1017.84
2004-10-25 14:00,8.1,6.6,7.8, 19,2712,1017.78
2004-10-25 15:00,8.2,6.2,7.0, 17,2742,1017.78
2004-10-25 16:00,8.4,5.7,7.1, 18,2760,1017.72
2004-10-25 17:00,8.5,5.6,6.8, 25,2784,1017.42
2004-10-25 18:00,8.6,4.7,5.5, 13,2726,1017.18
2004-10-25 19:00,8.8,4.6,5.9, 14,2741,1017.36
2004-10-25 20:00,9.1,5.1,6.3, 14,2756,1017.42
2004-10-25 21:00,9.2,5.0,6.1, 17,2826,1017.42
2004-10-25 22:00,9.4,5.2,6.2, 34,2850,1017.78
2004-10-25 23:00,9.5,4.6,5.3, 34,2814,1017.72
2004-10-26 00:00,9.6,4.8,5.8, 44,2805,1018.20
2004-10-26 01:00,9.5,5.0,6.4,  8,2825,1017.84
2004-10-26 02:00,9.3,4.7,6.0,  4,2694,1017.78
2004-10-26 03:00,9.0,5.2,5.9,359,2719,1017.84
2004-10-26 04:00,8.9,5.3,6.5,  3,2721,1017.84
2004-10-26 05:00,8.8,4.8,6.0,  7,2704,1017.72
2004-10-26 06:00,8.7,4.3,5.6,  1,2677,1017.72
2004-10-26 07:00,8.4,5.8,6.9,339,2737,1017.60
2004-10-26 08:00,8.5,5.7,6.9,355,2770,1017.84
2004-10-26 09:00,8.5,5.7,6.9,351,2792,1018.20
2004-10-26 10:00,8.4,5.7,6.7,348,2786,1018.20
2004-10-26 11:00,8.5,5.9,7.3,353,2771,1018.20
2004-10-26 12:00,8.3,6.5,7.9,343,2749,1018.80
2004-10-26 13:00,7.4,6.6,8.2,342,2730,1018.98
2004-10-26 14:00,8.1,5.9,7.1,  1,2781,1018.92
2004-10-26 15:00,8.8,5.7,6.7, 11,2773,1018.50
2004-10-26 16:00,9.0,4.8,5.8,  2,2815,1018.62
2004-10-26 17:00,9.3,4.6,5.7, 15,2820,1018.14
2004-10-26 18:00,9.5,2.8,3.7, 47,2879,1017.78
2004-10-26 19:00,9.6,3.9,5.1, 82,2838,1017.60
2004-10-26 20:00,9.9,2.3,3.7,105,2699,1017.54
2004-10-26 21:00,10.2,1.4,2.4,228,2840,1017.78
2004-10-26 22:00,9.4,3.0,4.3,268,2838,1017.60
2004-10-26 23:00,9.4,3.2,4.5,267,2862,1017.96
2004-10-27 00:00,9.4,2.6,4.1,275,2628,1018.02
2004-10-27 01:00,9.9,3.7,4.6,326,2735,1018.20
2004-10-27 02:00,9.9,5.4,6.4,  4,2755,1018.74
2004-10-27 03:00,9.5,4.4,5.2,354,2798,1018.56
2004-10-27 04:00,9.0,5.0,6.0,349,2816,1018.50
2004-10-27 05:00,8.9,5.6,6.7,353,2786,1018.50
2004-10-27 06:00,8.7,6.2,7.6,  8,2764,1018.56
2004-10-27 07:00,8.5,5.7,6.6,  3,2748,1018.44
2004-10-27 08:00,8.2,5.8,7.2,348,2737,1018.74
2004-10-27 09:00,8.5,6.9,8.1,344,2742,1018.98
2004-10-27 10:00,8.3,7.1,8.5,343,2743,1019.28
2004-10-27 11:00,8.3,7.5,8.9,356,2748,1019.34
2004-10-27 12:00,8.2,6.2,7.6,347,1105,1019.58
2004-10-27 13:00,8.2,5.5,6.6,354,1301,1020.00
2004-10-27 14:00,9.2,5.8,7.1, 12,2727,1020.12
2004-10-27 15:00,9.7,5.8,6.7, 16,2718,1019.94
2004-10-27 16:00,10.2,4.0,4.8, 25,2808,1019.94
2004-10-27 17:00,10.5,1.5,2.2, 38,2782,1019.28
2004-10-27 18:00,10.2,0.6,1.5, 27,2783,1018.80
2004-10-27 19:00,10.3,1.3,2.0, 76,2798,1018.74
2004-10-27 20:00,10.4,1.2,1.9,234,2741,1019.22
2004-10-27 21:00,11.1,3.8,5.5,357,2807,1019.64
2004-10-27 22:00,11.6,6.4,7.3,  8,2855,1019.88
2004-10-27 23:00,11.1,4.3,5.3,356,2814,1020.48
2004-10-28 00:00,11.2,6.7,7.7,  7,2894,1020.90
2004-10-28 01:00,10.4,7.1,8.5,  2,2886,1021.32
2004-10-28 02:00,9.8,8.9,11.0,356,2879,1021.86
2004-10-28 03:00,9.1,9.1,10.3,352,2891,1022.40
2004-10-28 04:00,8.7,7.7,8.8,355,2900,1022.70
2004-10-28 05:00,8.2,9.1,10.7,358,2905,1022.88
2004-10-28 06:00,7.9,8.6,10.1,  8,2867,1023.54
2004-10-28 07:00,8.0,10.0,12.5, 21,2872,1023.84
2004-10-28 08:00,7.4,9.2,10.8, 12,2855,1024.08
2004-10-28 09:00,6.5,8.4,10.0,  4,2870,1024.62
2004-10-28 10:00,6.4,8.7,10.7,  9,2879,1025.22
2004-10-28 11:00,6.1,9.0,10.6,  6,2879,1025.58
2004-10-28 12:00,5.9,8.8,10.5,  6,2701,1026.18
2004-10-28 13:00,6.0,8.6,9.9, 10,2721,1026.48
2004-10-28 14:00,6.3,7.6,9.3, 14,1918,1026.84
2004-10-28 15:00,6.6,6.7,8.1,  9,1973,1027.08